Regional Weather Roundup
Issued by NWS Midland/Odessa, TX

Skip options and go directly to product.
Home | Oldest Version | Next Version | Current Version | All | Text Only | Save Text | Print | Product List | Glossary On

Skip product version selection by date and time.   
209
ASUS44 KMAF 271202
RWRMAF
MIDLAND AREA WEATHER ROUNDUP
NATIONAL WEATHER SERVICE MIDLAND TX
600 AM CST THU NOV 27 2014

...IN SOUTHWEST TEXAS AND SOUTHEAST NEW MEXICO...

CITY           SKY/WX    TMP DP  RH WIND       PRES   REMARKS
ALPINE         CLEAR     37  21  53 SW8       30.45S WCI  31
ANDREWS        FAIR      32  29  90 NE3       30.43R
ARTESIA        NOT AVBL
BIG SPRING     PTCLDY    39  31  73 CALM      30.46R
CARLSBAD       PTCLDY    35  26  69 CALM      30.41R
DRYDEN           N/A     45  32  60 N9        30.39R
FORT STOCKTON  CLEAR     39  29  67 SE6       30.40S WCI  35
GUAD PASS      NOT AVBL
HOBBS          CLEAR     32  30  93 CALM      30.43S
MARFA          CLEAR     28  19  69 N8        30.42R WCI  20
MIDLAND AIRPK  PTCLDY    36  32  84 CALM      30.44R
MIDLAND INTL   PTCLDY    37  31  78 E5        30.42S WCI  33
ODESSA         PTCLDY    39  31  72 E8        30.42S WCI  33
PECOS          PTCLDY    32  27  81 CALM      30.41S
PRESIDIO       FAIR      43  25  48 NW7       30.36S WCI  39
SEMINOLE       MOCLDY    33  29  86 CALM      30.44S
SNYDER         CLEAR     36  29  75 NE8       30.46R WCI  30
WINK           CLEAR     37  28  70 E6        30.40S WCI  32
$$
...OTHER STATIONS IN TEXAS...

CITY           SKY/WX    TMP DP  RH WIND       PRES   REMARKS
ABILENE        CLEAR     38  27  64 E5        30.47R WCI  34
AMARILLO       PTCLDY    30  19  63 S14       30.42S WCI  19
AUSTIN         CLEAR     39  34  82 N8        30.45R WCI  33
BROWNSVILLE    CLEAR     47  46  97 CALM      30.35R
CORPUS CHRISTI PTCLDY    49  47  93 N9        30.37R
DALLAS FTW     CLEAR     38  28  67 NE12      30.47S WCI  30
DEL RIO        CLEAR     40  35  83 VRB3      30.39R
EL PASO        MOCLDY    35  18  49 CALM      30.36S
HOUSTON INT    CLEAR     46  38  73 N5        30.43R
LUBBOCK        CLEAR     30  22  72 SE7       30.43F WCI  23
SAN ANGELO     CLEAR     32  28  85 CALM      30.45R
SAN ANTONIO    CLEAR     49  36  61 N6        30.42R
WACO           CLEAR     38  32  79 N7        30.48R WCI  33
WICHITA FALLS  NOT AVBL
$$
...OTHER LOCATIONS IN NEW MEXICO...

CITY           SKY/WX    TMP DP  RH WIND       PRES   REMARKS
ALAMAGORDO     PTCLDY    32  18  55 MISG      30.38F
ALBUQUERQUE    PTCLDY    39  22  50 N7        30.43F WCI  34
CANNON AFB     CLEAR     30  24  77 CALM      30.42S
CLOVIS         PTCLDY    27  19  74 SW10      30.41F WCI  17
HOLLOMAN AFB   PTCLDY    30  17  58 CALM      30.38S
ROSWELL        CLEAR     33  24  69 CALM      30.42R
RUIDOSO        PTCLDY    37  18  44 W5        30.46R WCI  34
SANTA FE       PTCLDY    29  21  72 N12       30.44S WCI  19
TRUTH OR CONSE PTCLDY    43  19  38 NW9       30.40S WCI  38
TUCUMCARI      PTCLDY    29  24  82 SW5       30.38F WCI  24
$$

USA.gov is the U.S. government's official web portal to all federal, state and local government web resources and services.